Location: Rio Negrinho
(26.2394°S, 49.4999°W)
Time: 23:03:24
(UTC+00:00)

ASTRO E2 - Pass Details

Date: 07 June 2020
Orbit: 510 x 516 km, 31.4° (Epoch: 10 July)

Event Time Altitude Azimuth Distance (km) Brightness Sun altitude
Exits shadow 09:35:11 - 253° (WSW) 1,960 4.9 -6.1°
Reaches altitude 10° 09:35:46 10° 250° (WSW) 1,747 4.7 -6.0°
Maximum altitude 09:39:33 38° 180° (S) 803 3.5 -5.2°
Drops below altitude 10° 09:43:20 10° 111° (ESE) 1,748 6.1 -4.4°
Sets 09:45:41 0° 102° (ESE) 2,635 7.3 -3.9°
